Weather History for EGXU - December, 2012

Change the Weather History Date:

Monday, December 31, 2012

  Actual Average (EGNM) Record (EGNM)
Temperature  
Mean Temperature 47 °F -  
Max Temperature 53 °F 41 °F 51 °F (2011)
Min Temperature 41 °F 34 °F 24 °F (2008)
Degree Days  
Heating Degree Days 18    
Moisture  
Dew Point 43 °F    
Average Humidity 82    
Maximum Humidity 93    
Minimum Humidity 70    
Precipitation  
Precipitation 0.04 in - - ()
Sea Level Pressure  
Sea Level Pressure 29.36 in    
Wind  
Wind Speed 16 mph ()    
Max Wind Speed 29 mph    
Max Gust Speed 43 mph    
Visibility 7.1 miles    
Events      
Averages and records for this station are not official NWS values.
T = Trace of Precipitation, MM = Missing Value Source: Averaged Metar Reports

Daily Weather History Graph

Daily Weather History Graph

Search for Another Location

Airport or City:

Trip Planner

Search our weather history database for the weather conditions in past years. The results will help you decide how hot, cold, wet, or windy it might be!

Date:

Astronomy

Dec. 31, 2012 Rise Set
Actual Time 8:24 AM GMT 3:52 PM GMT
Civil Twilight 7:40 AM GMT 4:35 PM GMT
Nautical Twilight 6:54 AM GMT 5:21 PM GMT
Astronomical Twilight 6:11 AM GMT 6:05 PM GMT
Moon 7:41 PM GMT (12/31) 9:28 AM GMT (12/31)
Length of Visible Light 8h 55m
Length of Day
7h 27m
Waning Gibbous, 91% of the Moon is Illuminated
Dec 31
Waning Gibbous
Jan 5
Last Quarter
Jan 11
New
Jan 18
First Quarter
Jan 27
Full

Hourly Weather History & Observations

Time (GMT) Temp. Windchill Dew Point Humidity Pressure Visibility Wind Dir Wind Speed Gust Speed Precip Events Conditions
12:50 AM 51.8 °F - 44.6 °F 76% 29.50 in 6.2 mi SW 23.0 mph - N/A   Scattered Clouds
1:50 AM 51.8 °F - 44.6 °F 76% 29.47 in 6.2 mi SW 21.9 mph 33.4 mph N/A   Scattered Clouds
2:50 AM 52 °F - 45 °F 70% 29.49 in 22 mi SW 18.4 mph - -   Mostly Cloudy
2:50 AM 51.8 °F - 44.6 °F 76% 29.47 in 6.2 mi SW 18.4 mph - N/A   Mostly Cloudy
3:50 AM 51.8 °F - 44.6 °F 76% 29.44 in 6.2 mi SSW 19.6 mph 32.2 mph N/A   Overcast
4:50 AM 51.8 °F - 44.6 °F 76% 29.42 in 6.2 mi SSW 20.7 mph 33.4 mph N/A   Mostly Cloudy
5:50 AM 52 °F - 45 °F 70% 29.37 in 44 mi SSW 19.6 mph - -   Scattered Clouds
5:50 AM 51.8 °F - 44.6 °F 76% 29.36 in 6.2 mi SSW 19.6 mph - N/A   Mostly Cloudy
6:50 AM 53.6 °F - 44.6 °F 72% 29.33 in 6.2 mi SW 26.5 mph 39.1 mph N/A   Scattered Clouds
7:50 AM 51.8 °F - 46.4 °F 82% 29.30 in 6.2 mi SW 28.8 mph 42.6 mph N/A   Partly Cloudy
8:50 AM 52 °F - 47 °F 76% 29.32 in 19 mi SW 26.5 mph - -   Partly Cloudy
8:50 AM 51.8 °F - 46.4 °F 82% 29.30 in 6.2 mi SW 26.5 mph - N/A   Scattered Clouds
9:50 AM 51.8 °F - 46.4 °F 82% 29.30 in 6.2 mi SW 21.9 mph - N/A   Mostly Cloudy
10:50 AM 51.8 °F - 46.4 °F 82% 29.30 in 6.2 mi SW 21.9 mph - N/A   Mostly Cloudy
11:50 AM 52 °F - 48 °F 80% 29.28 in 31 mi SSW 17.3 mph - -   Partly Cloudy
11:50 AM 51.8 °F - 48.2 °F 88% 29.27 in 6.2 mi SSW 17.3 mph - N/A   Scattered Clouds
12:50 PM 51.8 °F - 48.2 °F 88% 29.27 in 6.2 mi WSW 15.0 mph - N/A   Scattered Clouds
1:50 PM 48.2 °F - 42.8 °F 82% 29.27 in 6.2 mi West 15.0 mph 32.2 mph N/A   Mostly Cloudy
2:50 PM 46.4 °F 41.5 °F 42.8 °F 87% 29.27 in 6.2 mi West 10.4 mph - N/A   Scattered Clouds
3:50 PM 46.4 °F 42.9 °F 42.8 °F 87% 29.27 in 6.2 mi WSW 6.9 mph - N/A   Unknown
4:50 PM 44.6 °F 40.7 °F 41.0 °F 87% 29.30 in 6.2 mi West 6.9 mph - N/A   Scattered Clouds
5:50 PM 45 °F - 42 °F 83% 29.34 in 22 mi West 8.1 mph - -   Mostly Cloudy
5:50 PM 44.6 °F 40.2 °F 41.0 °F 87% 29.33 in 6.2 mi West 8.1 mph - N/A   Mostly Cloudy
6:50 PM 44.6 °F 41.4 °F 39.2 °F 81% 29.36 in 6.2 mi WSW 5.8 mph - N/A   Unknown
7:50 PM 42.8 °F 40.1 °F 41.0 °F 93% 29.36 in 6.2 mi SW 4.6 mph - N/A   Partly Cloudy
8:50 PM 42 °F - 40 °F 91% 29.39 in 18 mi WSW 5.8 mph - -   Mostly Cloudy
8:50 PM 42.8 °F 39.3 °F 41.0 °F 93% 29.39 in 6.2 mi WSW 5.8 mph - N/A   Mostly Cloudy
9:50 PM 42.8 °F 36.6 °F 39.2 °F 87% 29.39 in 6.2 mi West 11.5 mph - N/A   Scattered Clouds
10:50 PM 41.0 °F 35.8 °F 37.4 °F 87% 29.39 in 6.2 mi West 8.1 mph - N/A   Unknown
11:50 PM 41 °F - 36 °F 77% 29.43 in 25 mi SW 5.8 mph - -   Scattered Clouds
11:50 PM 41.0 °F 37.1 °F 35.6 °F 81% 29.42 in 6.2 mi SW 5.8 mph - N/A   Partly Cloudy